| time (UTC) | temp F | wind direction | speed knots | gust knots | rain 1hr in | rain 24hr in | rain mn in | humidity % | barometer mb |
| 20260905113010 | 64 | 318 | 3.5 | 7.8 | 0.00 | 0.00 | 0.00 | 83 | 1009.1 |
| 20260905111609 | 64 | 331 | 1.7 | 5.2 | 0.00 | 0.00 | 0.00 | 84 | 1009.0 |
| 20260905110008 | 63 | 326 | 0.0 | 0.0 | 0.00 | 0.00 | 0.00 | 85 | 1008.8 |
| 20260905104510 | 63 | 326 | 0.0 | 2.6 | 0.00 | 0.00 | 0.00 | 85 | 1008.7 |
| 20260905103043 | 63 | 299 | 2.6 | 5.2 | 0.00 | 0.00 | 0.00 | 86 | 1008.6 |
| 20260905101549 | 61 | 293 | 0.0 | 0.0 | 0.00 | 0.00 | 0.00 | 86 | 1008.6 |
| 20260905100033 | 62 | 293 | 0.0 | 2.6 | 0.00 | 0.00 | 0.00 | 86 | 1008.5 |
| 20260905094533 | 61 | 293 | 0.0 | 0.0 | 0.00 | 0.00 | 0.00 | 86 | 1008.5 |
| 20260905093032 | 61 | 293 | 0.0 | 0.9 | 0.00 | 0.00 | 0.00 | 86 | 1008.6 |
| 20260905091532 | 60 | 293 | 0.0 | 0.0 | 0.00 | 0.00 | 0.00 | 86 | 1008.5 |
| 20260905090002 | 60 | 293 | 0.0 | 0.0 | 0.00 | 0.00 | 0.00 | 87 | 1008.5 |
| 20260905084602 | 61 | 293 | 0.0 | 0.0 | 0.00 | 0.00 | 0.00 | 87 | 1008.4 |
| 20260905083059 | 60 | 293 | 0.0 | 0.0 | 0.00 | 0.00 | 0.00 | 87 | 1008.4 |
| 20260905080104 | 60 | 293 | 0.0 | 0.0 | 0.00 | 0.00 | 0.00 | 87 | 1008.4 |
| 20260905074555 | 59 | 293 | 0.0 | 0.0 | 0.00 | 0.00 | 0.00 | 87 | 1008.5 |
| 20260905073029 | 59 | 293 | 0.0 | 0.0 | 0.00 | 0.00 | 0.00 | 87 | 1008.6 |
| 20260905071527 | 59 | 293 | 0.0 | 0.0 | 0.00 | 0.00 | 0.00 | 87 | 1008.7 |
| 20260905070025 | 59 | 293 | 0.0 | 0.0 | 0.00 | 0.00 | 0.00 | 87 | 1008.7 |
| 20260905064518 | 59 | 293 | 0.0 | 0.0 | 0.00 | 0.00 | 0.00 | 87 | 1008.9 |
| 20260905063017 | 60 | 293 | 0.0 | 0.0 | 0.00 | 0.00 | 0.00 | 87 | 1008.9 |
| 20260905061515 | 60 | 293 | 0.0 | 0.0 | 0.00 | 0.00 | 0.00 | 87 | 1009.1 |
| 20260905060044 | 61 | 293 | 0.0 | 0.0 | 0.00 | 0.00 | 0.00 | 87 | 1009.3 |
| 20260905054551 | 61 | 293 | 0.0 | 0.0 | 0.00 | 0.00 | 0.00 | 87 | 1009.3 |
| 20260905053041 | 61 | 293 | 0.0 | 0.0 | 0.00 | 0.00 | 0.00 | 87 | 1009.3 |
| 20260905051541 | 61 | 293 | 0.0 | 0.0 | 0.00 | 0.00 | 0.00 | 87 | 1009.4 |
| 20260905050036 | 62 | 293 | 0.0 | 0.0 | 0.00 | 0.00 | 0.00 | 86 | 1009.5 |
| 20260905044535 | 62 | 293 | 0.0 | 0.0 | 0.00 | 0.00 | 0.00 | 86 | 1009.4 |
| 20260905043032 | 62 | 293 | 0.0 | 0.0 | 0.00 | 0.00 | 0.00 | 86 | 1009.2 |
| 20260905041531 | 63 | 293 | 0.0 | 0.0 | 0.00 | 0.00 | 0.00 | 86 | 1009.2 |
| 20260905040033 | 63 | 293 | 0.0 | 0.0 | 0.00 | 0.00 | 0.00 | 86 | 1009.2 |
| 20260905034531 | 63 | 293 | 0.0 | 0.0 | 0.00 | 0.00 | 0.00 | 86 | 1009.3 |
| 20260905033031 | 63 | 293 | 0.0 | 0.0 | 0.00 | 0.00 | 0.00 | 86 | 1009.2 |
| 20260905031529 | 63 | 293 | 0.0 | 0.0 | 0.00 | 0.00 | 0.00 | 86 | 1009.1 |
| 20260905030022 | 64 | 293 | 0.0 | 0.0 | 0.00 | 0.00 | 0.00 | 85 | 1009.2 |
| 20260905024520 | 64 | 293 | 0.0 | 0.0 | 0.00 | 0.00 | 0.00 | 85 | 1009.1 |
| 20260905023020 | 64 | 293 | 0.0 | 0.0 | 0.00 | 0.00 | 0.00 | 85 | 1009.1 |
| 20260905021517 | 65 | 293 | 0.0 | 0.0 | 0.00 | 0.00 | 0.00 | 85 | 1009.1 |
| 20260905020018 | 65 | 293 | 0.0 | 0.0 | 0.00 | 0.00 | 0.00 | 84 | 1009.3 |
| 20260905014511 | 65 | 293 | 0.0 | 0.0 | 0.00 | 0.00 | 0.00 | 84 | 1009.5 |
| 20260905013006 | 66 | 293 | 0.0 | 0.0 | 0.00 | 0.00 | 0.00 | 84 | 1009.7 |
| 20260905011505 | 67 | 293 | 0.0 | 0.0 | 0.00 | 0.00 | 0.00 | 83 | 1009.7 |
| 20260905010059 | 67 | 293 | 0.0 | 0.0 | 0.00 | 0.00 | 0.00 | 83 | 1009.6 |
| 20260905004623 | 67 | 293 | 0.0 | 0.0 | 0.00 | 0.00 | 0.00 | 82 | 1009.6 |
| 20260905003056 | 68 | 293 | 0.0 | 0.0 | 0.00 | 0.00 | 0.00 | 81 | 1009.4 |
| 20260905001551 | 69 | 293 | 0.0 | 0.0 | 0.00 | 0.00 | 0.00 | 79 | 1009.3 |
| 20260905000045 | 70 | 293 | 0.0 | 0.0 | 0.00 | 0.00 | 0.00 | 76 | 1009.1 |
| 20260904234541 | 71 | 293 | 0.0 | 0.0 | 0.00 | 0.00 | 0.00 | 74 | 1009.0 |
| 20260904233037 | 74 | 293 | 0.0 | 0.0 | 0.00 | 0.00 | 0.00 | 69 | 1009.0 |
| 20260904231536 | 75 | 293 | 0.0 | 0.0 | 0.00 | 0.00 | 0.00 | 65 | 1008.9 |
| 20260904230043 | 76 | 293 | 0.0 | 0.0 | 0.00 | 0.00 | 0.00 | 64 | 1008.8 |
| 20260904224528 | 77 | 277 | 0.0 | 2.6 | 0.00 | 0.00 | 0.00 | 62 | 1008.7 |
| 20260904223023 | 78 | 296 | 0.0 | 2.6 | 0.00 | 0.00 | 0.00 | 61 | 1008.7 |
| 20260904221524 | 78 | 302 | 3.5 | 8.7 | 0.00 | 0.00 | 0.00 | 59 | 1008.5 |
| 20260904220018 | 78 | 305 | 1.7 | 9.6 | 0.00 | 0.00 | 0.00 | 62 | 1008.5 |
| 20260904214521 | 78 | 303 | 3.5 | 11.3 | 0.00 | 0.00 | 0.00 | 60 | 1008.5 |
| 20260904213017 | 78 | 314 | 6.1 | 10.4 | 0.00 | 0.00 | 0.00 | 60 | 1008.5 |
| 20260904211515 | 78 | 299 | 7.0 | 12.2 | 0.00 | 0.00 | 0.00 | 56 | 1008.6 |
| 20260904210015 | 78 | 284 | 2.6 | 9.6 | 0.00 | 0.00 | 0.00 | 60 | 1008.6 |
| 20260904204513 | 78 | 282 | 5.2 | 12.2 | 0.00 | 0.00 | 0.00 | 58 | 1008.4 |
| 20260904203007 | 78 | 249 | 4.3 | 14.8 | 0.00 | 0.00 | 0.00 | 58 | 1008.5 |
| 20260904203004 | 78 | 249 | 5.2 | 14.8 | 0.00 | 0.00 | 0.00 | 58 | 1008.5 |
| 20260904201504 | 78 | 315 | 7.0 | 11.3 | 0.00 | 0.00 | 0.00 | 59 | 1008.7 |
| 20260904200003 | 78 | 265 | 1.7 | 10.4 | 0.00 | 0.00 | 0.00 | 59 | 1008.7 |
| 20260904194608 | 78 | 272 | 0.0 | 8.7 | 0.00 | 0.00 | 0.00 | 62 | 1008.7 |
| 20260904193100 | 78 | 296 | 6.1 | 9.6 | 0.00 | 0.00 | 0.00 | 62 | 1008.6 |
| 20260904191558 | 77 | 295 | 4.3 | 12.2 | 0.00 | 0.00 | 0.00 | 62 | 1008.6 |
| 20260904190058 | 78 | 295 | 5.2 | 10.4 | 0.00 | 0.00 | 0.00 | 62 | 1008.7 |
| 20260904184631 | 78 | 321 | 5.2 | 11.3 | 0.00 | 0.00 | 0.00 | 59 | 1008.8 |
| 20260904183027 | 78 | 328 | 6.1 | 12.2 | 0.00 | 0.00 | 0.00 | 58 | 1008.9 |
| 20260904181523 | 78 | 297 | 3.5 | 12.2 | 0.00 | 0.00 | 0.00 | 60 | 1008.8 |
| 20260904180022 | 77 | 317 | 7.0 | 13.0 | 0.00 | 0.00 | 0.00 | 59 | 1008.7 |
| 20260904174519 | 77 | 328 | 1.7 | 10.4 | 0.00 | 0.00 | 0.00 | 63 | 1008.8 |
| 20260904173021 | 77 | 296 | 4.3 | 11.3 | 0.00 | 0.00 | 0.00 | 65 | 1009.0 |
| 20260904171551 | 76 | 290 | 6.1 | 12.2 | 0.00 | 0.00 | 0.00 | 66 | 1008.9 |
| 20260904170052 | 76 | 317 | 4.3 | 9.6 | 0.00 | 0.00 | 0.00 | 68 | 1009.1 |
| 20260904164516 | 76 | 330 | 0.0 | 11.3 | 0.00 | 0.00 | 0.00 | 67 | 1009.1 |
| 20260904163016 | 75 | 301 | 6.1 | 10.4 | 0.00 | 0.00 | 0.00 | 69 | 1009.3 |
| 20260904161544 | 75 | 314 | 2.6 | 10.4 | 0.00 | 0.00 | 0.00 | 72 | 1009.3 |
| 20260904160041 | 75 | 299 | 1.7 | 11.3 | 0.00 | 0.00 | 0.00 | 72 | 1009.5 |
| 20260904154539 | 74 | 293 | 0.0 | 10.4 | 0.00 | 0.00 | 0.00 | 74 | 1009.7 |
| 20260904153049 | 74 | 290 | 6.1 | 10.4 | 0.00 | 0.00 | 0.00 | 74 | 1009.7 |
| 20260904151536 | 74 | 313 | 7.0 | 10.4 | 0.00 | 0.00 | 0.00 | 76 | 1009.9 |
| 20260904150044 | 74 | 299 | 5.2 | 8.7 | 0.00 | 0.00 | 0.00 | 74 | 1009.8 |
| 20260904144533 | 74 | 307 | 0.0 | 8.7 | 0.00 | 0.00 | 0.00 | 76 | 1009.8 |
| 20260904143036 | 74 | 339 | 3.5 | 8.7 | 0.00 | 0.00 | 0.00 | 75 | 1009.8 |
| 20260904141532 | 74 | 312 | 5.2 | 9.6 | 0.00 | 0.00 | 0.00 | 76 | 1010.0 |
| 20260904140030 | 74 | 299 | 4.3 | 10.4 | 0.00 | 0.00 | 0.00 | 77 | 1010.0 |
| 20260904134530 | 73 | 301 | 7.0 | 11.3 | 0.00 | 0.00 | 0.00 | 78 | 1010.0 |
| 20260904133026 | 72 | 315 | 5.2 | 10.4 | 0.00 | 0.00 | 0.00 | 85 | 1010.1 |
| 20260904131525 | 69 | 284 | 0.0 | 3.5 | 0.00 | 0.00 | 0.00 | 87 | 1010.1 |
| 20260904130039 | 69 | 245 | 0.0 | 0.0 | 0.00 | 0.00 | 0.00 | 87 | 1010.1 |
| 20260904124525 | 69 | 245 | 0.0 | 0.0 | 0.00 | 0.00 | 0.00 | 88 | 1010.2 |
| 20260904123025 | 68 | 245 | 0.0 | 0.0 | 0.00 | 0.00 | 0.00 | 88 | 1010.1 |
| 20260904121521 | 66 | 245 | 0.0 | 0.0 | 0.00 | 0.00 | 0.00 | 88 | 1010.2 |
| 20260904120033 | 66 | 245 | 0.0 | 0.0 | 0.00 | 0.00 | 0.00 | 87 | 1010.1 |
| 20260904114549 | 65 | 245 | 0.0 | 0.0 | 0.00 | 0.00 | 0.00 | 88 | 1010.0 |